Year,Month,Day,Hour,Minute,Value (Times are PST for temperature in C)
2015,08,12,00,00,16.80
2015,08,12,00,01,16.90
2015,08,12,00,02,16.90
2015,08,12,00,03,16.90
2015,08,12,00,04,16.90
2015,08,12,00,05,16.90
2015,08,12,00,06,16.90
2015,08,12,00,07,17.00
2015,08,12,00,08,17.00
2015,08,12,00,09,16.90
2015,08,12,00,10,16.90
2015,08,12,00,11,16.90
2015,08,12,00,12,16.90
2015,08,12,00,13,16.90
2015,08,12,00,14,16.90
2015,08,12,00,15,16.90
2015,08,12,00,16,16.90
2015,08,12,00,17,16.90
2015,08,12,00,18,16.90
2015,08,12,00,19,16.90
2015,08,12,00,20,16.80
2015,08,12,00,21,16.80
2015,08,12,00,22,16.80
2015,08,12,00,23,16.80
2015,08,12,00,24,16.80
2015,08,12,00,25,16.90
2015,08,12,00,26,16.90
2015,08,12,00,27,16.90
2015,08,12,00,28,16.90
2015,08,12,00,29,16.90
2015,08,12,00,30,16.90
2015,08,12,00,31,16.90
2015,08,12,00,32,16.90
2015,08,12,00,33,16.90
2015,08,12,00,34,16.90
2015,08,12,00,35,16.90
2015,08,12,00,36,16.80
2015,08,12,00,37,16.80
2015,08,12,00,38,16.80
2015,08,12,00,39,16.80
2015,08,12,00,40,16.70
2015,08,12,00,41,16.70
2015,08,12,00,42,16.70
2015,08,12,00,43,16.60
2015,08,12,00,44,16.50
2015,08,12,00,45,16.40
2015,08,12,00,46,16.40
2015,08,12,00,47,16.40
2015,08,12,00,48,16.40
2015,08,12,00,49,16.40
2015,08,12,00,50,16.30
2015,08,12,00,51,16.30
2015,08,12,00,52,16.30
2015,08,12,00,53,16.30
2015,08,12,00,54,16.30
2015,08,12,00,55,16.30
2015,08,12,00,56,16.30
2015,08,12,00,57,16.30
2015,08,12,00,58,16.30
2015,08,12,00,59,16.30
2015,08,12,01,00,16.30
2015,08,12,01,01,16.30
2015,08,12,01,02,16.30
2015,08,12,01,03,16.30
2015,08,12,01,04,16.30
2015,08,12,01,05,16.30
2015,08,12,01,06,16.30
2015,08,12,01,07,16.30
2015,08,12,01,08,16.30
2015,08,12,01,09,16.30
2015,08,12,01,10,16.30
2015,08,12,01,11,16.30
2015,08,12,01,12,16.30
2015,08,12,01,13,16.30
2015,08,12,01,14,16.30
2015,08,12,01,15,16.30
2015,08,12,01,16,16.30
2015,08,12,01,17,16.30
2015,08,12,01,18,16.40
2015,08,12,01,19,16.40
2015,08,12,01,20,16.40
2015,08,12,01,21,16.40
2015,08,12,01,22,16.40
2015,08,12,01,23,16.40
2015,08,12,01,24,16.40
2015,08,12,01,25,16.40
2015,08,12,01,26,16.40
2015,08,12,01,27,16.40
2015,08,12,01,28,16.40
2015,08,12,01,29,16.40
2015,08,12,01,30,16.40
2015,08,12,01,31,16.40
2015,08,12,01,32,16.40
2015,08,12,01,33,16.40
2015,08,12,01,34,16.40
2015,08,12,01,35,16.40
2015,08,12,01,36,16.50
2015,08,12,01,37,16.60
2015,08,12,01,38,16.60
2015,08,12,01,39,16.60
2015,08,12,01,40,16.60
2015,08,12,01,41,16.60
2015,08,12,01,42,16.60
2015,08,12,01,43,16.70
2015,08,12,01,44,16.70
2015,08,12,01,45,16.70
2015,08,12,01,46,16.70
2015,08,12,01,47,16.70
2015,08,12,01,48,16.70
2015,08,12,01,49,16.70
2015,08,12,01,50,16.70
2015,08,12,01,51,16.70
2015,08,12,01,52,16.70
2015,08,12,01,53,16.80
2015,08,12,01,54,16.80
2015,08,12,01,55,16.80
2015,08,12,01,56,16.80
2015,08,12,01,57,16.80
2015,08,12,01,58,16.80
2015,08,12,01,59,16.80
2015,08,12,02,00,16.80
2015,08,12,02,01,16.80
2015,08,12,02,02,16.80
2015,08,12,02,03,16.80
2015,08,12,02,04,16.80
2015,08,12,02,05,16.80
2015,08,12,02,06,16.90
2015,08,12,02,07,16.90
2015,08,12,02,08,16.90
2015,08,12,02,09,16.90
2015,08,12,02,10,16.90
2015,08,12,02,11,16.90
2015,08,12,02,12,16.90
2015,08,12,02,13,16.90
2015,08,12,02,14,16.90
2015,08,12,02,15,16.90
2015,08,12,02,16,16.90
2015,08,12,02,17,16.90
2015,08,12,02,18,16.90
2015,08,12,02,19,16.90
2015,08,12,02,20,17.00
2015,08,12,02,21,17.00
2015,08,12,02,22,17.00
2015,08,12,02,23,17.00
2015,08,12,02,24,17.00
2015,08,12,02,25,17.00
2015,08,12,02,26,17.00
2015,08,12,02,27,17.00
2015,08,12,02,28,17.00
2015,08,12,02,29,16.90
2015,08,12,02,30,16.90
2015,08,12,02,31,16.80
2015,08,12,02,32,16.80
2015,08,12,02,33,16.80
2015,08,12,02,34,16.80
2015,08,12,02,35,16.70
2015,08,12,02,36,16.70
2015,08,12,02,37,16.70
2015,08,12,02,38,16.70
2015,08,12,02,39,16.60
2015,08,12,02,40,16.60
2015,08,12,02,41,16.50
2015,08,12,02,42,16.40
2015,08,12,02,43,16.40
2015,08,12,02,44,16.30
2015,08,12,02,45,16.20
2015,08,12,02,46,16.10
2015,08,12,02,47,16.10
2015,08,12,02,48,16.00
2015,08,12,02,49,15.90
2015,08,12,02,50,15.90
2015,08,12,02,51,15.80
2015,08,12,02,52,15.80
2015,08,12,02,53,15.80
2015,08,12,02,54,15.80
2015,08,12,02,55,15.70
2015,08,12,02,56,15.70
2015,08,12,02,57,15.70
2015,08,12,02,58,15.60
2015,08,12,02,59,15.60
2015,08,12,03,00,15.60
2015,08,12,03,01,15.60
2015,08,12,03,02,15.60
2015,08,12,03,03,15.50
2015,08,12,03,04,15.50
2015,08,12,03,05,15.50
2015,08,12,03,06,15.50
2015,08,12,03,07,15.50
2015,08,12,03,08,15.40
2015,08,12,03,09,15.40
2015,08,12,03,10,15.40
2015,08,12,03,11,15.40
2015,08,12,03,12,15.40
2015,08,12,03,13,15.40
2015,08,12,03,14,15.40
2015,08,12,03,15,15.40
2015,08,12,03,16,15.40
2015,08,12,03,17,15.40
2015,08,12,03,18,15.40
2015,08,12,03,19,15.40
2015,08,12,03,20,15.40
2015,08,12,03,21,15.40
2015,08,12,03,22,15.40
2015,08,12,03,23,15.30
2015,08,12,03,24,15.30
2015,08,12,03,25,15.30
2015,08,12,03,26,15.30
2015,08,12,03,27,15.30
2015,08,12,03,28,15.30
2015,08,12,03,29,15.30
2015,08,12,03,30,15.30
2015,08,12,03,31,15.30
2015,08,12,03,32,15.30
2015,08,12,03,33,15.30
2015,08,12,03,34,15.30
2015,08,12,03,35,15.30
2015,08,12,03,36,15.30
2015,08,12,03,37,15.30
2015,08,12,03,38,15.30
2015,08,12,03,39,15.30
2015,08,12,03,40,15.30
2015,08,12,03,41,15.20
2015,08,12,03,42,15.30
2015,08,12,03,43,15.30
2015,08,12,03,44,15.20
2015,08,12,03,45,15.20
2015,08,12,03,46,15.20
2015,08,12,03,47,15.20
2015,08,12,03,48,15.20
2015,08,12,03,49,15.20
2015,08,12,03,50,15.20
2015,08,12,03,51,15.20
2015,08,12,03,52,15.20
2015,08,12,03,53,15.20
2015,08,12,03,54,15.20
2015,08,12,03,55,15.20
2015,08,12,03,56,15.20
2015,08,12,03,57,15.20
2015,08,12,03,58,15.20
2015,08,12,03,59,15.20
2015,08,12,04,00,15.20
2015,08,12,04,01,15.20
2015,08,12,04,02,15.20
2015,08,12,04,03,15.20
2015,08,12,04,04,15.20
2015,08,12,04,05,15.20
2015,08,12,04,06,15.20
2015,08,12,04,07,15.20
2015,08,12,04,08,15.20
2015,08,12,04,09,15.20
2015,08,12,04,10,15.20
2015,08,12,04,11,15.20
2015,08,12,04,12,15.20
2015,08,12,04,13,15.20
2015,08,12,04,14,15.20
2015,08,12,04,15,15.20
2015,08,12,04,16,15.20
2015,08,12,04,17,15.20
2015,08,12,04,18,15.30
2015,08,12,04,19,15.30
2015,08,12,04,20,15.30
2015,08,12,04,21,15.30
2015,08,12,04,22,15.30
2015,08,12,04,23,15.30
2015,08,12,04,24,15.30
2015,08,12,04,25,15.30
2015,08,12,04,26,15.20
2015,08,12,04,27,15.20
2015,08,12,04,28,15.20
2015,08,12,04,29,15.20
2015,08,12,04,30,15.20
2015,08,12,04,31,15.30
2015,08,12,04,32,15.30
2015,08,12,04,33,15.30
2015,08,12,04,34,15.30
2015,08,12,04,35,15.30
2015,08,12,04,36,15.30
2015,08,12,04,37,15.30
2015,08,12,04,38,15.30
2015,08,12,04,39,15.30
2015,08,12,04,40,15.30
2015,08,12,04,41,15.30
2015,08,12,04,42,15.30
2015,08,12,04,43,15.30
2015,08,12,04,44,15.30
2015,08,12,04,45,15.30
2015,08,12,04,46,15.30
2015,08,12,04,47,15.30
2015,08,12,04,48,15.30
2015,08,12,04,49,15.30
2015,08,12,04,50,15.30
2015,08,12,04,51,15.30
2015,08,12,04,52,15.30
2015,08,12,04,53,15.30
2015,08,12,04,54,15.30
2015,08,12,04,55,15.40
2015,08,12,04,56,15.40
2015,08,12,04,57,15.40
2015,08,12,04,58,15.40
2015,08,12,04,59,15.50
2015,08,12,05,00,15.50
2015,08,12,05,01,15.50
2015,08,12,05,02,15.60
2015,08,12,05,03,15.60
2015,08,12,05,04,15.70
2015,08,12,05,05,15.70
2015,08,12,05,06,15.80
2015,08,12,05,07,15.80
2015,08,12,05,08,15.80
2015,08,12,05,09,15.80
2015,08,12,05,10,15.80
2015,08,12,05,11,15.90
2015,08,12,05,12,15.90
2015,08,12,05,13,16.00
2015,08,12,05,14,16.10
2015,08,12,05,15,16.10
2015,08,12,05,16,16.10
2015,08,12,05,17,16.10
2015,08,12,05,18,16.10
2015,08,12,05,19,16.20
2015,08,12,05,20,16.20
2015,08,12,05,21,16.20
2015,08,12,05,22,16.30
2015,08,12,05,23,16.30
2015,08,12,05,24,16.40
2015,08,12,05,25,16.40
2015,08,12,05,26,16.40
2015,08,12,05,27,16.60
2015,08,12,05,28,16.60
2015,08,12,05,29,16.60
2015,08,12,05,30,16.70
2015,08,12,05,31,16.70
2015,08,12,05,32,16.70
2015,08,12,05,33,16.70
2015,08,12,05,34,16.70
2015,08,12,05,35,16.70
2015,08,12,05,36,16.70
2015,08,12,05,37,16.60
2015,08,12,05,38,16.60
2015,08,12,05,39,16.60
2015,08,12,05,40,16.60
2015,08,12,05,41,16.60
2015,08,12,05,42,16.60
2015,08,12,05,43,16.60
2015,08,12,05,44,16.60
2015,08,12,05,45,16.50
2015,08,12,05,46,16.40
2015,08,12,05,47,16.50
2015,08,12,05,48,16.60
2015,08,12,05,49,16.60
2015,08,12,05,50,16.60
2015,08,12,05,51,16.60
2015,08,12,05,52,16.60
2015,08,12,05,53,16.60
2015,08,12,05,54,16.60
2015,08,12,05,55,16.70
2015,08,12,05,56,16.70
2015,08,12,05,57,16.60
2015,08,12,05,58,16.40
2015,08,12,05,59,16.30
2015,08,12,06,00,16.20
2015,08,12,06,01,16.20
2015,08,12,06,02,16.20
2015,08,12,06,03,16.10
2015,08,12,06,04,16.10
2015,08,12,06,05,16.10
2015,08,12,06,06,15.90
2015,08,12,06,07,15.80
2015,08,12,06,08,15.80
2015,08,12,06,09,15.70
2015,08,12,06,10,15.60
2015,08,12,06,11,15.60
2015,08,12,06,12,15.50
2015,08,12,06,13,15.50
2015,08,12,06,14,15.50
2015,08,12,06,15,15.40
2015,08,12,06,16,15.40
2015,08,12,06,17,15.40
2015,08,12,06,18,15.30
2015,08,12,06,19,15.30
2015,08,12,06,20,15.20
2015,08,12,06,21,15.10
2015,08,12,06,22,15.10
2015,08,12,06,23,15.00
2015,08,12,06,24,15.00
2015,08,12,06,25,15.00
2015,08,12,06,26,14.90
2015,08,12,06,27,14.90
2015,08,12,06,28,14.90
2015,08,12,06,29,14.90
2015,08,12,06,30,14.90
2015,08,12,06,31,14.90
2015,08,12,06,32,14.90
2015,08,12,06,33,14.90
2015,08,12,06,34,14.90
2015,08,12,06,35,14.80
2015,08,12,06,36,14.80
2015,08,12,06,37,14.80
2015,08,12,06,38,14.80
2015,08,12,06,39,14.80
2015,08,12,06,40,14.80
2015,08,12,06,41,14.80
2015,08,12,06,42,14.80
2015,08,12,06,43,14.80
2015,08,12,06,44,14.80
2015,08,12,06,45,14.80
2015,08,12,06,46,14.80
2015,08,12,06,47,14.80
2015,08,12,06,48,14.80
2015,08,12,06,49,14.80
2015,08,12,06,50,14.80
2015,08,12,06,51,14.80
2015,08,12,06,52,14.80
2015,08,12,06,53,14.80
2015,08,12,06,54,14.80
2015,08,12,06,55,14.80
2015,08,12,06,56,14.80
2015,08,12,06,57,14.80
2015,08,12,06,58,14.80
2015,08,12,06,59,14.90
2015,08,12,07,00,14.90
2015,08,12,07,01,14.90
2015,08,12,07,02,14.90
2015,08,12,07,03,14.90
2015,08,12,07,04,14.90
2015,08,12,07,05,14.90
2015,08,12,07,06,14.90
2015,08,12,07,07,14.90
2015,08,12,07,08,14.90
2015,08,12,07,09,15.00
2015,08,12,07,10,15.00
2015,08,12,07,11,15.00
2015,08,12,07,12,15.10
2015,08,12,07,13,15.10
2015,08,12,07,14,15.20
2015,08,12,07,15,15.30
2015,08,12,07,16,15.30
2015,08,12,07,17,15.40
2015,08,12,07,18,15.50
2015,08,12,07,19,15.50
2015,08,12,07,20,15.50
2015,08,12,07,21,15.60
2015,08,12,07,22,15.60
2015,08,12,07,23,15.70
2015,08,12,07,24,15.70
2015,08,12,07,25,15.80
2015,08,12,07,26,15.80
2015,08,12,07,27,15.80
2015,08,12,07,28,15.80
2015,08,12,07,29,15.80
2015,08,12,07,30,15.80
2015,08,12,07,31,15.80
2015,08,12,07,32,15.90
2015,08,12,07,33,15.90
2015,08,12,07,34,16.00
2015,08,12,07,35,16.10
2015,08,12,07,36,16.10
2015,08,12,07,37,16.10
2015,08,12,07,38,16.10
2015,08,12,07,39,16.20
2015,08,12,07,40,16.30
2015,08,12,07,41,16.40
2015,08,12,07,42,16.50
2015,08,12,07,43,16.70
2015,08,12,07,44,16.70
2015,08,12,07,45,16.80
2015,08,12,07,46,16.90
2015,08,12,07,47,16.90
2015,08,12,07,48,16.90
2015,08,12,07,49,17.00
2015,08,12,07,50,17.00
2015,08,12,07,51,17.10
2015,08,12,07,52,17.20
2015,08,12,07,53,17.20
2015,08,12,07,54,17.30
2015,08,12,07,55,17.30
2015,08,12,07,56,17.30
2015,08,12,07,57,17.40
2015,08,12,07,58,17.50
2015,08,12,07,59,17.50
2015,08,12,08,00,17.60
2015,08,12,08,01,17.60
2015,08,12,08,02,17.70
2015,08,12,08,03,17.80
2015,08,12,08,04,17.90
2015,08,12,08,05,17.90
2015,08,12,08,06,18.00
2015,08,12,08,07,18.10
2015,08,12,08,08,18.20
2015,08,12,08,09,18.40
2015,08,12,08,10,18.60
2015,08,12,08,11,18.70
2015,08,12,08,12,18.90
2015,08,12,08,13,19.00
2015,08,12,08,14,19.10
2015,08,12,08,15,19.10
2015,08,12,08,16,19.20
2015,08,12,08,17,19.30
2015,08,12,08,18,19.40
2015,08,12,08,19,19.50
2015,08,12,08,20,19.60
2015,08,12,08,21,19.70
2015,08,12,08,22,19.80
2015,08,12,08,23,19.90
2015,08,12,08,24,19.90
2015,08,12,08,25,20.10
2015,08,12,08,26,20.10
2015,08,12,08,27,20.20
2015,08,12,08,28,20.20
2015,08,12,08,29,20.30
2015,08,12,08,30,20.40
2015,08,12,08,31,20.50
2015,08,12,08,32,20.50
2015,08,12,08,33,20.50
2015,08,12,08,34,20.60
2015,08,12,08,35,20.60
2015,08,12,08,36,20.60
2015,08,12,08,37,20.60
2015,08,12,08,38,20.60
2015,08,12,08,39,20.50
2015,08,12,08,40,20.60
2015,08,12,08,41,20.60
2015,08,12,08,42,20.70
2015,08,12,08,43,20.70
2015,08,12,08,44,20.80
2015,08,12,08,45,21.00
2015,08,12,08,46,21.00
2015,08,12,08,47,21.10
2015,08,12,08,48,21.20
2015,08,12,08,49,21.30
2015,08,12,08,50,21.30
2015,08,12,08,51,21.40
2015,08,12,08,52,21.60
2015,08,12,08,53,21.60
2015,08,12,08,54,21.80
2015,08,12,08,55,21.90
2015,08,12,08,56,21.90
2015,08,12,08,57,21.90
2015,08,12,08,58,21.80
2015,08,12,08,59,21.70
2015,08,12,09,00,21.60
2015,08,12,09,01,21.60
2015,08,12,09,02,21.50
2015,08,12,09,03,21.30
2015,08,12,09,04,21.30
2015,08,12,09,05,21.10
2015,08,12,09,06,21.10
2015,08,12,09,07,21.10
2015,08,12,09,08,21.10
2015,08,12,09,09,21.00
2015,08,12,09,10,20.90
2015,08,12,09,11,20.70
2015,08,12,09,12,20.50
2015,08,12,09,13,20.40
2015,08,12,09,14,20.40
2015,08,12,09,15,20.40
2015,08,12,09,16,20.40
2015,08,12,09,17,20.40
2015,08,12,09,18,20.40
2015,08,12,09,19,20.50
2015,08,12,09,20,20.50
2015,08,12,09,21,20.60
2015,08,12,09,22,20.60
2015,08,12,09,23,20.70
2015,08,12,09,24,20.70
2015,08,12,09,25,20.80
2015,08,12,09,26,20.90
2015,08,12,09,27,21.00
2015,08,12,09,28,21.00
2015,08,12,09,29,21.10
2015,08,12,09,30,21.10
2015,08,12,09,31,21.20
2015,08,12,09,32,21.30
2015,08,12,09,33,21.40
2015,08,12,09,34,21.60
2015,08,12,09,35,21.80
2015,08,12,09,36,22.00
2015,08,12,09,37,22.10
2015,08,12,09,38,22.20
2015,08,12,09,39,22.30
2015,08,12,09,40,22.30
2015,08,12,09,41,22.30
2015,08,12,09,42,22.30
2015,08,12,09,43,22.20
2015,08,12,09,44,22.10
2015,08,12,09,45,21.90
2015,08,12,09,46,21.70
2015,08,12,09,47,21.60
2015,08,12,09,48,21.50
2015,08,12,09,49,21.40
2015,08,12,09,50,21.30
2015,08,12,09,51,21.30
2015,08,12,09,52,21.40
2015,08,12,09,53,21.60
2015,08,12,09,54,21.60
2015,08,12,09,55,21.80
2015,08,12,09,56,21.80
2015,08,12,09,57,21.90
2015,08,12,09,58,21.90
2015,08,12,09,59,21.90
2015,08,12,10,00,21.90
2015,08,12,10,01,21.90
2015,08,12,10,02,22.00
2015,08,12,10,03,22.00
2015,08,12,10,04,22.00
2015,08,12,10,05,22.00
2015,08,12,10,06,22.00
2015,08,12,10,07,22.10
2015,08,12,10,08,22.10
2015,08,12,10,09,22.20
2015,08,12,10,10,22.30
2015,08,12,10,11,22.30
2015,08,12,10,12,22.50
2015,08,12,10,13,22.50
2015,08,12,10,14,22.60
2015,08,12,10,15,22.60
2015,08,12,10,16,22.70
2015,08,12,10,17,22.90
2015,08,12,10,18,22.90
2015,08,12,10,19,23.10
2015,08,12,10,20,23.10
2015,08,12,10,21,23.00
2015,08,12,10,22,22.90
2015,08,12,10,23,22.90
2015,08,12,10,24,22.90
2015,08,12,10,25,23.10
2015,08,12,10,26,23.00
2015,08,12,10,27,22.90
2015,08,12,10,28,22.90
2015,08,12,10,29,22.80
2015,08,12,10,30,22.80
2015,08,12,10,31,22.70
2015,08,12,10,32,22.60
2015,08,12,10,33,22.60
2015,08,12,10,34,22.50
2015,08,12,10,35,22.40
2015,08,12,10,36,22.40
2015,08,12,10,37,22.30
2015,08,12,10,38,22.30
2015,08,12,10,39,22.20
2015,08,12,10,40,22.00
2015,08,12,10,41,22.00
2015,08,12,10,42,22.10
2015,08,12,10,43,22.20
2015,08,12,10,44,22.30
2015,08,12,10,45,22.40
2015,08,12,10,46,22.40
2015,08,12,10,47,22.60
2015,08,12,10,48,22.70
2015,08,12,10,49,22.90
2015,08,12,10,50,23.00
2015,08,12,10,51,23.10
2015,08,12,10,52,23.20
2015,08,12,10,53,23.30
2015,08,12,10,54,23.50
2015,08,12,10,55,23.60
2015,08,12,10,56,23.70
2015,08,12,10,57,23.80
2015,08,12,10,58,23.90
2015,08,12,10,59,24.00
2015,08,12,11,00,24.10
2015,08,12,11,01,24.20
2015,08,12,11,02,24.20
2015,08,12,11,03,24.20
2015,08,12,11,04,24.30
2015,08,12,11,05,24.20
2015,08,12,11,06,24.10
2015,08,12,11,07,23.90
2015,08,12,11,08,23.80
2015,08,12,11,09,23.70
2015,08,12,11,10,23.60
2015,08,12,11,11,23.60
2015,08,12,11,12,23.60
2015,08,12,11,13,23.60
2015,08,12,11,14,23.50
2015,08,12,11,15,23.20
2015,08,12,11,16,23.10
2015,08,12,11,17,22.90
2015,08,12,11,18,22.80
2015,08,12,11,19,22.80
2015,08,12,11,20,22.80
2015,08,12,11,21,22.90
2015,08,12,11,22,22.90
2015,08,12,11,23,22.90
2015,08,12,11,24,22.90
2015,08,12,11,25,23.10
2015,08,12,11,26,23.20
2015,08,12,11,27,23.30
2015,08,12,11,28,23.50
2015,08,12,11,29,23.70
2015,08,12,11,30,23.70
2015,08,12,11,31,23.80
2015,08,12,11,32,23.90
2015,08,12,11,33,23.90
2015,08,12,11,34,23.90
2015,08,12,11,35,23.90
2015,08,12,11,36,23.80
2015,08,12,11,37,23.80
2015,08,12,11,38,23.80
2015,08,12,11,39,23.70
2015,08,12,11,40,23.70
2015,08,12,11,41,23.70
2015,08,12,11,42,23.60
2015,08,12,11,43,23.70
2015,08,12,11,44,23.60
2015,08,12,11,45,23.60
2015,08,12,11,46,23.60
2015,08,12,11,47,23.60
2015,08,12,11,48,23.60
2015,08,12,11,49,23.40
2015,08,12,11,50,23.30
2015,08,12,11,51,23.20
2015,08,12,11,52,23.10
2015,08,12,11,53,23.10
2015,08,12,11,54,23.10
2015,08,12,11,55,23.10
2015,08,12,11,56,23.10
2015,08,12,11,57,23.10
2015,08,12,11,58,23.10
2015,08,12,11,59,23.10
2015,08,12,12,00,23.10
2015,08,12,12,01,23.10
2015,08,12,12,02,23.10
2015,08,12,12,03,23.10
2015,08,12,12,04,23.00
2015,08,12,12,05,22.90
2015,08,12,12,06,22.90
2015,08,12,12,07,22.90
2015,08,12,12,08,22.90
2015,08,12,12,09,22.90
2015,08,12,12,10,22.90
2015,08,12,12,11,22.90
2015,08,12,12,12,22.90
2015,08,12,12,13,23.00
2015,08,12,12,14,23.10
2015,08,12,12,15,23.10
2015,08,12,12,16,23.10
2015,08,12,12,17,23.20
2015,08,12,12,18,23.20
2015,08,12,12,19,23.30
2015,08,12,12,20,23.30
2015,08,12,12,21,23.30
2015,08,12,12,22,23.40
2015,08,12,12,23,23.40
2015,08,12,12,24,23.60
2015,08,12,12,25,23.60
2015,08,12,12,26,23.70
2015,08,12,12,27,23.70
2015,08,12,12,28,23.80
2015,08,12,12,29,23.90
2015,08,12,12,30,23.90
2015,08,12,12,31,24.00
2015,08,12,12,32,24.10
2015,08,12,12,33,24.10
2015,08,12,12,34,24.10
2015,08,12,12,35,24.10
2015,08,12,12,36,24.10
2015,08,12,12,37,24.10
2015,08,12,12,38,24.10
2015,08,12,12,39,24.20
2015,08,12,12,40,24.20
2015,08,12,12,41,24.30
2015,08,12,12,42,24.30
2015,08,12,12,43,24.30
2015,08,12,12,44,24.40
2015,08,12,12,45,24.40
2015,08,12,12,46,24.40
2015,08,12,12,47,24.40
2015,08,12,12,48,24.50
2015,08,12,12,49,24.50
2015,08,12,12,50,24.60
2015,08,12,12,51,24.60
2015,08,12,12,52,24.60
2015,08,12,12,53,24.70
2015,08,12,12,54,24.70
2015,08,12,12,55,24.70
2015,08,12,12,56,24.80
2015,08,12,12,57,24.80
2015,08,12,12,58,24.80
2015,08,12,12,59,24.80
2015,08,12,13,00,24.80
2015,08,12,13,01,24.80
2015,08,12,13,02,24.80
2015,08,12,13,03,24.80
2015,08,12,13,04,24.80
2015,08,12,13,05,24.80
2015,08,12,13,06,24.70
2015,08,12,13,07,24.70
2015,08,12,13,08,24.60
2015,08,12,13,09,24.50
2015,08,12,13,10,24.50
2015,08,12,13,11,24.60
2015,08,12,13,12,24.50
2015,08,12,13,13,24.40
2015,08,12,13,14,24.20
2015,08,12,13,15,24.00
2015,08,12,13,16,23.90
2015,08,12,13,17,23.80
2015,08,12,13,18,23.70
2015,08,12,13,19,23.70
2015,08,12,13,20,23.70
2015,08,12,13,21,23.60
2015,08,12,13,22,23.60
2015,08,12,13,23,23.60
2015,08,12,13,24,23.60
2015,08,12,13,25,23.50
2015,08,12,13,26,23.40
2015,08,12,13,27,23.50
2015,08,12,13,28,23.60
2015,08,12,13,29,23.60
2015,08,12,13,30,23.60
2015,08,12,13,31,23.60
2015,08,12,13,32,23.70
2015,08,12,13,33,23.70
2015,08,12,13,34,23.70
2015,08,12,13,35,23.80
2015,08,12,13,36,23.90
2015,08,12,13,37,23.90
2015,08,12,13,38,24.00
2015,08,12,13,39,24.10
2015,08,12,13,40,24.10
2015,08,12,13,41,24.10
2015,08,12,13,42,24.10
2015,08,12,13,43,24.20
2015,08,12,13,44,24.30
2015,08,12,13,45,24.30
2015,08,12,13,46,24.20
2015,08,12,13,47,24.20
2015,08,12,13,48,24.10
2015,08,12,13,49,24.00
2015,08,12,13,50,23.90
2015,08,12,13,51,23.80
2015,08,12,13,52,23.70
2015,08,12,13,53,23.40
2015,08,12,13,54,23.20
2015,08,12,13,55,22.90
2015,08,12,13,56,22.80
2015,08,12,13,57,22.70
2015,08,12,13,58,22.60
2015,08,12,13,59,22.50
2015,08,12,14,00,22.40
2015,08,12,14,01,22.40
2015,08,12,14,02,22.40
2015,08,12,14,03,22.40
2015,08,12,14,04,22.40
2015,08,12,14,05,22.40
2015,08,12,14,06,22.50
2015,08,12,14,07,22.60
2015,08,12,14,08,22.70
2015,08,12,14,09,22.80
2015,08,12,14,10,22.90
2015,08,12,14,11,23.00
2015,08,12,14,12,23.10
2015,08,12,14,13,23.30
2015,08,12,14,14,23.40
2015,08,12,14,15,23.40
2015,08,12,14,16,23.50
2015,08,12,14,17,23.60
2015,08,12,14,18,23.70
2015,08,12,14,19,23.70
2015,08,12,14,20,23.60
2015,08,12,14,21,23.50
2015,08,12,14,22,23.30
2015,08,12,14,23,23.30
2015,08,12,14,24,23.30
2015,08,12,14,25,23.30
2015,08,12,14,26,23.30
2015,08,12,14,27,23.30
2015,08,12,14,28,23.40
2015,08,12,14,29,23.40
2015,08,12,14,30,23.40
2015,08,12,14,31,23.30
2015,08,12,14,32,23.10
2015,08,12,14,33,22.80
2015,08,12,14,34,22.60
2015,08,12,14,35,22.50
2015,08,12,14,36,22.50
2015,08,12,14,37,22.60
2015,08,12,14,38,22.80
2015,08,12,14,39,22.90
2015,08,12,14,40,22.90
2015,08,12,14,41,22.90
2015,08,12,14,42,23.00
2015,08,12,14,43,23.10
2015,08,12,14,44,23.20
2015,08,12,14,45,23.30
2015,08,12,14,46,23.60
2015,08,12,14,47,23.70
2015,08,12,14,48,23.80
2015,08,12,14,49,24.00
2015,08,12,14,50,24.10
2015,08,12,14,51,24.20
2015,08,12,14,52,24.30
2015,08,12,14,53,24.40
2015,08,12,14,54,24.40
2015,08,12,14,55,24.40
2015,08,12,14,56,24.40
2015,08,12,14,57,24.40
2015,08,12,14,58,24.30
2015,08,12,14,59,24.20
2015,08,12,15,00,24.20
2015,08,12,15,01,24.20
2015,08,12,15,02,24.20
2015,08,12,15,03,24.30
2015,08,12,15,04,24.40
2015,08,12,15,05,24.60
2015,08,12,15,06,24.80
2015,08,12,15,07,25.00
2015,08,12,15,08,25.30
2015,08,12,15,09,25.40
2015,08,12,15,10,25.50
2015,08,12,15,11,25.60
2015,08,12,15,12,25.80
2015,08,12,15,13,25.90
2015,08,12,15,14,26.00
2015,08,12,15,15,26.10
2015,08,12,15,16,26.10
2015,08,12,15,17,26.20
2015,08,12,15,18,26.40
2015,08,12,15,19,26.50
2015,08,12,15,20,26.70
2015,08,12,15,21,26.90
2015,08,12,15,22,27.10
2015,08,12,15,23,27.20
2015,08,12,15,24,27.30
2015,08,12,15,25,27.50
2015,08,12,15,26,27.60
2015,08,12,15,27,27.70
2015,08,12,15,28,27.70
2015,08,12,15,29,27.70
2015,08,12,15,30,27.70
2015,08,12,15,31,27.60
2015,08,12,15,32,27.40
2015,08,12,15,33,27.00
2015,08,12,15,34,26.10
2015,08,12,15,35,25.10
2015,08,12,15,36,24.50
2015,08,12,15,37,24.10
2015,08,12,15,38,23.90
2015,08,12,15,39,23.80
2015,08,12,15,40,23.80
2015,08,12,15,41,23.90
2015,08,12,15,42,24.00
2015,08,12,15,43,24.10
2015,08,12,15,44,24.20
2015,08,12,15,45,24.30
2015,08,12,15,46,24.50
2015,08,12,15,47,24.60
2015,08,12,15,48,24.80
2015,08,12,15,49,24.90
2015,08,12,15,50,25.10
2015,08,12,15,51,25.30
2015,08,12,15,52,25.20
2015,08,12,15,53,24.50
2015,08,12,15,54,23.80
2015,08,12,15,55,23.20
2015,08,12,15,56,22.60
2015,08,12,15,57,22.10
2015,08,12,15,58,21.90
2015,08,12,15,59,21.70
2015,08,12,16,00,21.60
2015,08,12,16,01,21.50
2015,08,12,16,02,21.40
2015,08,12,16,03,21.30
2015,08,12,16,04,21.30
2015,08,12,16,05,21.20
2015,08,12,16,06,21.20
2015,08,12,16,07,21.20
2015,08,12,16,08,21.30
2015,08,12,16,09,21.30
2015,08,12,16,10,21.50
2015,08,12,16,11,21.70
2015,08,12,16,12,21.80
2015,08,12,16,13,21.80
2015,08,12,16,14,21.90
2015,08,12,16,15,21.80
2015,08,12,16,16,21.80
2015,08,12,16,17,21.70
2015,08,12,16,18,21.70
2015,08,12,16,19,21.80
2015,08,12,16,20,21.80
2015,08,12,16,21,21.90
2015,08,12,16,22,21.90
2015,08,12,16,23,21.90
2015,08,12,16,24,21.90
2015,08,12,16,25,21.80
2015,08,12,16,26,21.60
2015,08,12,16,27,21.40
2015,08,12,16,28,21.30
2015,08,12,16,29,21.30
2015,08,12,16,30,21.30
2015,08,12,16,31,21.10
2015,08,12,16,32,21.10
2015,08,12,16,33,21.00
2015,08,12,16,34,21.00
2015,08,12,16,35,21.00
2015,08,12,16,36,21.10
2015,08,12,16,37,21.10
2015,08,12,16,38,21.20
2015,08,12,16,39,21.30
2015,08,12,16,40,21.30
2015,08,12,16,41,21.30
2015,08,12,16,42,21.40
2015,08,12,16,43,21.40
2015,08,12,16,44,21.50
2015,08,12,16,45,21.60
2015,08,12,16,46,21.60
2015,08,12,16,47,21.60
2015,08,12,16,48,21.60
2015,08,12,16,49,21.70
2015,08,12,16,50,21.70
2015,08,12,16,51,21.70
2015,08,12,16,52,21.80
2015,08,12,16,53,21.80
2015,08,12,16,54,21.90
2015,08,12,16,55,22.00
2015,08,12,16,56,22.10
2015,08,12,16,57,22.20
2015,08,12,16,58,22.10
2015,08,12,16,59,22.10
2015,08,12,17,00,22.10
2015,08,12,17,01,22.10
2015,08,12,17,02,22.10
2015,08,12,17,03,22.20
2015,08,12,17,04,22.20
2015,08,12,17,05,22.20
2015,08,12,17,06,22.10
2015,08,12,17,07,22.20
2015,08,12,17,08,22.30
2015,08,12,17,09,22.30
2015,08,12,17,10,22.40
2015,08,12,17,11,22.40
2015,08,12,17,12,22.50
2015,08,12,17,13,22.60
2015,08,12,17,14,22.70
2015,08,12,17,15,22.80
2015,08,12,17,16,22.90
2015,08,12,17,17,22.90
2015,08,12,17,18,23.00
2015,08,12,17,19,23.10